[[{"header":{"parameterUnit":"m.s-1","parameterCategory":1,"la1":30.2991,"la2":30.254,"lo1":-89.0895,"lo2":-89.0444,"dy":0.0017,"dx":0.0017,"nx":28,"ny":28,"refTime":"2024-12-07T09:00:00:Z","depth":0,"parameterNumber":2,"parameterNumberName":"U-component_of_WINDS"},"data":[0,0,0,0,0,0,0,0,0,0,0,0,0,0,0,0,0,0,0,0,0,0,0,0,0,0,0,0,0,0,0,0,0,0,0,0,0,0,0,0,0,0,0,0,0,0,0,0,0,0,0,0,0,0,0,0,0,0,-3.2187,-3.2187,0,-3.2236,-3.2237,-3.2237,-3.2128,-3.2125,-3.2121,-3.2118,-3.2171,-3.2176,-3.2181,0,0,0,0,0,0,0,0,0,0,0,0,0,-3.2,-3.2004,-3.2187,-3.2187,-3.2188,-3.2236,-3.2237,-3.2238,-3.2129,-3.2125,-3.212,-3.2116,-3.217,-3.2175,-3.2181,0,0,0,0,0,0,0,0,0,0,0,0,0,-3.2069,-3.2006,-3.2187,-3.214,-3.2136,-3.2236,-3.2237,-3.2238,-3.213,-3.2125,-3.2119,-3.2114,-3.2168,-3.2175,-3.2182,-3.2331,0,0,-3.2203,-3.2206,0,0,0,0,0,0,0,0,-3.2065,-3.2076,-3.2146,-3.2143,-3.2139,-3.2171,-3.2191,-3.2269,-3.2131,-3.2132,-3.2118,-3.2112,-3.2176,-3.2182,-3.2203,-3.2333,-3.2336,-3.2204,-3.2208,-3.2211,-3.2213,0,0,0,0,0,0,0,-3.2061,-3.2073,-3.2206,-3.2147,-3.2143,-3.2117,-3.2121,-3.2205,-3.2183,-3.2132,-3.2124,-3.2131,-3.2173,-3.2196,-3.2203,-3.2337,-3.2204,-3.221,-3.2214,-3.2217,-3.2593,-3.2599,0,0,0,0,0,0,-3.2061,-3.207,-3.2205,-3.2208,-3.2088,-3.2124,-3.2129,-3.2166,-3.2182,-3.2179,-3.2136,-3.2126,-3.2187,-3.2195,-3.2205,-3.2382,-3.2211,-3.2218,-3.2222,-3.2587,-3.2594,-3.2601,0,0,0,0,0,0,-3.2058,-3.2075,-3.2203,-3.2137,-3.2151,-3.2133,-3.2176,-3.217,-3.2193,-3.2185,-3.218,-3.2164,-3.2183,-3.2195,-3.23,-3.2382,-3.2221,-3.2228,-3.2581,-3.259,-3.2598,-3.2736,0,0,0,0,0,0,-3.2053,-3.2074,-3.213,-3.2139,-3.2155,-3.2298,-3.2181,-3.2175,-3.2205,-3.2193,-3.221,-3.2208,-3.218,-3.2291,-3.2308,-3.2389,-3.2233,-3.2573,-3.2585,-3.2595,-3.2724,-3.2749,-3.2769,0,0,0,0,0,-3.2047,-3.2167,-3.2133,-3.215,-3.2225,-3.2303,-3.2312,-3.2277,-3.2212,-3.2269,-3.2263,-3.2207,-3.237,-3.2302,-3.232,-3.2405,-3.2568,-3.2581,-3.2594,-3.2714,-3.2744,-3.2769,0,0,0,0,0,0,-3.217,-3.2168,-3.213,-3.2257,-3.2281,-3.2284,-3.2355,-3.2309,-3.2352,-3.2339,-3.2294,-3.2299,-3.2414,-3.2419,-3.2344,-3.2551,-3.2458,-3.2475,-3.2543,-3.2571,-3.2593,-3.2591,-3.2239,0,0,0,0,0,-3.2211,-3.2274,-3.2269,-3.2382,-3.2395,-3.2373,-3.2406,-3.2376,-3.24,-3.2409,-3.2412,-3.2437,-3.2494,-3.2532,-3.2584,-3.2723,-3.2727,-3.2791,-3.2813,-3.2831,-3.2848,-3.2924,-3.2953,-3.2643,-3.2643,-3.2643,0,0,-3.2299,-3.2305,-3.2348,-3.2407,-3.2421,-3.2489,-3.2383,-3.2458,-3.2507,-3.2421,-3.2521,-3.2524,-3.2549,-3.2673,-3.2728,-3.2681,-3.2934,-3.2848,-3.2863,-3.2869,-3.294,-3.2969,-3.2995,-3.2652,-3.265,-3.2649,0,0,-3.2492,-3.2503,-3.2599,-3.2616,-3.2639,-3.2623,-3.2646,-3.2657,-3.2655,-3.2754,-3.2691,-3.2749,-3.2848,-3.2869,-3.2893,-3.3094,-3.3044,-3.3111,-3.323,-3.3304,-3.3329,-3.335,-3.3424,-3.3451,-3.3127,-3.3127,-3.3128,0,-3.2599,-3.2696,-3.2654,-3.2734,-3.2762,-3.2685,-3.2783,-3.2801,-3.2841,-3.2863,-3.2809,-3.2932,-3.2943,-3.3072,-3.3121,-3.3141,-3.3168,-3.3111,-3.3328,-3.3349,-3.3369,-3.3439,-3.3467,-3.3136,-3.3135,-3.3134,-3.3133,0,-3.2826,-3.2895,-3.2969,-3.3009,-3.3046,-3.3134,-3.3106,-3.3147,-3.3115,-3.3105,-3.3208,-3.3218,-3.3271,-3.3299,-3.3268,-3.3424,-3.3394,-3.3336,-3.3242,-3.3407,-3.3473,-3.3499,-3.3148,-3.3145,-3.3142,-3.314,0,0,-3.3102,-3.3116,-3.3144,-3.3162,-3.3181,-3.3234,-3.3319,-3.337,-3.3408,-3.3437,-3.3508,-3.3593,-3.3539,-3.3565,-3.3536,-3.3601,-3.3762,-3.3534,-3.3534,-3.3578,-3.3936,-3.3982,-3.4014,-3.3727,-3.3732,-3.3736,-3.3935,0,-3.3295,-3.344,-3.3404,-3.3549,-3.3613,-3.3541,-3.3614,-3.3635,-3.3628,-3.3682,-3.3673,-3.3735,-3.3657,-3.3673,-3.3734,-3.3729,-3.3833,-3.3714,-3.3795,-3.3799,-3.3794,-3.4047,-3.4096,-3.4283,-3.3959,-3.3964,-3.3967,0,-3.3541,-3.358,-3.3731,-3.3741,-3.3766,-3.3833,-3.3877,-3.3929,-3.3951,-3.3941,-3.3971,-3.3928,-3.4013,-3.3917,-3.4033,-3.3953,-3.3984,-3.3986,-3.3993,-3.4001,-3.3895,-3.4065,-3.4342,-3.4371,-3.4006,-3.4003,-3.4,0,-3.373,-3.3819,-3.3921,-3.3938,-3.3951,-3.4001,-3.4009,-3.4025,-3.4058,-3.4097,-3.4118,-3.4166,-3.4193,-3.4232,-3.4204,-3.4136,-3.4326,-3.4227,-3.4322,-3.4323,-3.4368,-3.4366,-3.4656,-3.4384,-3.4383,-3.4383,-3.4382,0,-3.3951,-3.4047,-3.4006,-3.407,-3.4175,-3.4132,-3.4238,-3.4238,-3.4253,-3.4316,-3.4255,-3.4315,-3.4273,-3.433,-3.4308,-3.4409,-3.4421,-3.4417,-3.4411,-3.4424,-3.4425,-3.4446,-3.4433,-3.439,-3.4388,-3.4387,-3.4386,0,-3.4181,-3.4157,-3.4264,-3.4268,-3.4271,-3.4349,-3.4352,-3.4411,-3.4398,-3.4479,-3.4495,-3.4476,-3.454,-3.4514,-3.4582,-3.4567,-3.4698,-3.4673,-3.4691,-3.4686,-3.4783,-3.4775,-3.5099,-3.514,-3.4838,-3.4841,-3.4844,0,-3.4326,-3.4398,-3.4409,-3.4446,-3.4458,-3.4519,-3.4552,-3.4512,-3.455,-3.458,-3.4636,-3.4694,-3.4739,-3.4844,-3.4837,-3.4889,-3.4867,-3.4976,-3.4874,-3.4886,-3.4871,-3.4869,-3.4876,-3.4998,-3.5001,-3.5004,-3.5006,0,-3.4586,-3.457,-3.462,-3.4666,-3.4707,-3.4742,-3.4771,-3.4805,-3.4767,-3.4812,-3.4876,-3.4911,-3.498,-3.5039,-3.5085,-3.5093,-3.5045,-3.5038,-3.5063,-3.5079,-3.5088,-3.5087,-3.475,-3.5032,-3.5029,-3.5027,-3.5026,-3.5025,-3.4779,-3.484,-3.4857,-3.4915,-3.4933,-3.4962,-3.5018,-3.5012,-3.5064,-3.5117,-3.509,-3.5165,-3.5185,-3.5241,-3.5257,-3.5316,-3.5273,-3.5309,-3.5319,-3.5329,-3.5343,-3.5076,-3.5323,-3.5323,-3.5322,-3.5321,-3.5321,0,-3.5038,-3.5045,-3.5098,-3.5141,-3.5187,-3.5134,-3.5164,-3.5207,-3.5273,-3.5295,-3.534,-3.5415,-3.5472,-3.5468,-3.5521,-3.5569,-3.5548,-3.5585,-3.5582,-3.5585,-3.5377,-3.5351,-3.5601,-3.5601,-3.5601,-3.5601,-3.56,-3.56,-3.5178,-3.5279,-3.5266,-3.5375,-3.5381,-3.5454,-3.5476,-3.5502,-3.552,-3.5606,-3.5652,-3.5649,-3.5662,-3.5715,-3.5765,-3.5763,-3.5786,-3.5832,-3.5822,-3.5627,-3.56,-3.5574,-3.5549,-3.5837,-3.5837,-3.6026,-3.6027,-3.6029]},{"header":{"parameterUnit":"m.s-1","parameterCategory":1,"la1":30.2991,"la2":30.254,"lo1":-89.0895,"lo2":-89.0444,"dy":0.0017,"dx":0.0017,"nx":28,"ny":28,"refTime":"2024-12-07T09:00:00:Z","depth":0,"parameterNumber":3,"parameterNumberName":"V-component_of_WINDS"},"data":[0,0,0,0,0,0,0,0,0,0,0,0,0,0,0,0,0,0,0,0,0,0,0,0,0,0,0,0,0,0,0,0,0,0,0,0,0,0,0,0,0,0,0,0,0,0,0,0,0,0,0,0,0,0,0,0,0,0,-3.6894,-3.6894,0,-3.6881,-3.688,-3.688,-3.682,-3.6819,-3.6818,-3.6816,-3.6803,-3.6803,-3.6804,0,0,0,0,0,0,0,0,0,0,0,0,0,-3.6869,-3.687,-3.6894,-3.6894,-3.6894,-3.6881,-3.688,-3.688,-3.6821,-3.6819,-3.6817,-3.6816,-3.6802,-3.6803,-3.6804,0,0,0,0,0,0,0,0,0,0,0,0,0,-3.687,-3.687,-3.6894,-3.6863,-3.686,-3.6881,-3.688,-3.688,-3.6821,-3.6819,-3.6817,-3.6815,-3.6802,-3.6803,-3.6805,-3.6855,0,0,-3.6809,-3.681,0,0,0,0,0,0,0,0,-3.687,-3.6871,-3.6868,-3.6865,-3.6862,-3.685,-3.6866,-3.6872,-3.6822,-3.6836,-3.6816,-3.6814,-3.682,-3.682,-3.6822,-3.6854,-3.6854,-3.6809,-3.681,-3.681,-3.6811,0,0,0,0,0,0,0,-3.687,-3.6871,-3.6889,-3.6868,-3.6864,-3.6849,-3.6847,-3.6867,-3.684,-3.6834,-3.683,-3.6829,-3.6818,-3.6821,-3.6821,-3.6854,-3.6809,-3.681,-3.6811,-3.6812,-3.6925,-3.6928,0,0,0,0,0,0,-3.6875,-3.6872,-3.6889,-3.6889,-3.6861,-3.6851,-3.6849,-3.6856,-3.6839,-3.6835,-3.6831,-3.6826,-3.6819,-3.682,-3.682,-3.6877,-3.681,-3.6812,-3.6813,-3.6923,-3.6926,-3.6928,0,0,0,0,0,0,-3.6874,-3.6877,-3.689,-3.6879,-3.6879,-3.6854,-3.6862,-3.6857,-3.6859,-3.6837,-3.6832,-3.6839,-3.6818,-3.6818,-3.6847,-3.6876,-3.6812,-3.6814,-3.6921,-3.6924,-3.6927,-3.6993,0,0,0,0,0,0,-3.6874,-3.6877,-3.6896,-3.688,-3.688,-3.6917,-3.6864,-3.6858,-3.6862,-3.6856,-3.6843,-3.6838,-3.6816,-3.6845,-3.6848,-3.6877,-3.6815,-3.6918,-3.6922,-3.6926,-3.6988,-3.6998,-3.7006,0,0,0,0,0,-3.6873,-3.6916,-3.6897,-3.69,-3.6904,-3.6919,-3.6919,-3.6892,-3.6864,-3.6883,-3.6869,-3.6839,-3.6872,-3.6848,-3.6851,-3.6881,-3.6916,-3.6921,-3.6926,-3.6983,-3.6996,-3.7006,0,0,0,0,0,0,-3.6937,-3.6913,-3.6892,-3.6931,-3.6927,-3.6908,-3.6931,-3.6906,-3.691,-3.6904,-3.6871,-3.6869,-3.6901,-3.6894,-3.6867,-3.6928,-3.6889,-3.6895,-3.6932,-3.6943,-3.6952,-3.6953,-3.6816,0,0,0,0,0,-3.6955,-3.6969,-3.6948,-3.6984,-3.6983,-3.6958,-3.6963,-3.6943,-3.6937,-3.6936,-3.6923,-3.6919,-3.6928,-3.6936,-3.6943,-3.6986,-3.6982,-3.7008,-3.7018,-3.7025,-3.7031,-3.7052,-3.7063,-3.6944,-3.6944,-3.6944,0,0,-3.6993,-3.6982,-3.6993,-3.6996,-3.6991,-3.7006,-3.6957,-3.6975,-3.6985,-3.6938,-3.6964,-3.6955,-3.6948,-3.6984,-3.6999,-3.6978,-3.7062,-3.7032,-3.7038,-3.7039,-3.7058,-3.7069,-3.7079,-3.6948,-3.6947,-3.6947,0,0,-3.7071,-3.7064,-3.7092,-3.7088,-3.708,-3.7063,-3.707,-3.7055,-3.7046,-3.7071,-3.7036,-3.7048,-3.7065,-3.7062,-3.7062,-3.7137,-3.7109,-3.714,-3.7189,-3.721,-3.7219,-3.7227,-3.7253,-3.7263,-3.7146,-3.7146,-3.7146,0,-3.7119,-3.714,-3.7111,-3.7131,-3.7133,-3.709,-3.7118,-3.7115,-3.7111,-3.7113,-3.709,-3.711,-3.7103,-3.7136,-3.7154,-3.7157,-3.7163,-3.7142,-3.722,-3.7228,-3.7235,-3.7259,-3.7269,-3.715,-3.7149,-3.7149,-3.7149,0,-3.72,-3.7215,-3.7239,-3.7235,-3.724,-3.7264,-3.7237,-3.7246,-3.7225,-3.721,-3.7235,-3.7225,-3.7229,-3.7235,-3.7215,-3.7266,-3.7253,-3.7226,-3.7186,-3.7251,-3.7273,-3.7282,-3.7155,-3.7154,-3.7153,-3.7152,0,0,-3.7318,-3.7296,-3.7305,-3.7302,-3.729,-3.7301,-3.7323,-3.7326,-3.7333,-3.7332,-3.7349,-3.7364,-3.7338,-3.7339,-3.7318,-3.7336,-3.7395,-3.7306,-3.7306,-3.7322,-3.7449,-3.7469,-3.748,-3.7376,-3.7378,-3.7379,-3.7449,0,-3.7391,-3.7427,-3.74,-3.744,-3.7453,-3.7413,-3.7431,-3.7426,-3.7412,-3.7421,-3.7406,-3.7417,-3.7383,-3.7383,-3.7399,-3.7384,-3.742,-3.7379,-3.7392,-3.7393,-3.7394,-3.7492,-3.7513,-3.7579,-3.7457,-3.7459,-3.746,0,-3.7481,-3.7482,-3.7524,-3.7507,-3.7512,-3.753,-3.753,-3.7539,-3.7532,-3.752,-3.7521,-3.7494,-3.7514,-3.7475,-3.7502,-3.7475,-3.7478,-3.7471,-3.7473,-3.7473,-3.743,-3.7494,-3.76,-3.761,-3.7473,-3.7472,-3.7471,0,-3.7561,-3.7573,-3.7599,-3.7598,-3.758,-3.7593,-3.7586,-3.7577,-3.758,-3.7581,-3.7582,-3.7586,-3.7587,-3.759,-3.7565,-3.7539,-3.7595,-3.7554,-3.7585,-3.7586,-3.7599,-3.7598,-3.7707,-3.7602,-3.7602,-3.7602,-3.7602,0,-3.7646,-3.7673,-3.7635,-3.7651,-3.768,-3.7649,-3.7678,-3.7667,-3.7658,-3.7671,-3.7636,-3.7649,-3.7616,-3.7625,-3.7606,-3.763,-3.7631,-3.7623,-3.7617,-3.7625,-3.7626,-3.7627,-3.7621,-3.7605,-3.7604,-3.7604,-3.7603,0,-3.774,-3.7717,-3.7742,-3.7722,-3.7718,-3.774,-3.7723,-3.7737,-3.7721,-3.7737,-3.7739,-3.7714,-3.7723,-3.7698,-3.7704,-3.7691,-3.7726,-3.7713,-3.7729,-3.7724,-3.7757,-3.7754,-3.7869,-3.7882,-3.7771,-3.7772,-3.7773,0,-3.7795,-3.7815,-3.7797,-3.7803,-3.7797,-3.7808,-3.781,-3.778,-3.7785,-3.7777,-3.7792,-3.7798,-3.7801,-3.7817,-3.7799,-3.7803,-3.779,-3.783,-3.779,-3.7797,-3.7789,-3.7788,-3.7789,-3.7838,-3.7839,-3.784,-3.7841,0,-3.7895,-3.7882,-3.7887,-3.7889,-3.7893,-3.7893,-3.789,-3.7897,-3.7864,-3.7871,-3.7879,-3.7882,-3.7886,-3.7893,-3.7892,-3.7885,-3.7858,-3.7854,-3.7861,-3.787,-3.7877,-3.7873,-3.775,-3.7851,-3.785,-3.785,-3.7849,-3.7849,-3.7971,-3.7986,-3.7975,-3.7982,-3.7976,-3.7974,-3.7986,-3.7971,-3.7977,-3.7978,-3.796,-3.7972,-3.7963,-3.796,-3.7955,-3.7964,-3.7945,-3.7957,-3.7959,-3.7962,-3.7967,-3.7876,-3.7964,-3.7964,-3.7963,-3.7963,-3.7963,0,-3.8068,-3.8059,-3.8066,-3.8062,-3.8067,-3.8041,-3.8036,-3.8042,-3.8053,-3.8046,-3.805,-3.8059,-3.8065,-3.8047,-3.805,-3.806,-3.8048,-3.8062,-3.8061,-3.8059,-3.7984,-3.7977,-3.8072,-3.8072,-3.8072,-3.8072,-3.8072,-3.8072,-3.8119,-3.8143,-3.8128,-3.8148,-3.8139,-3.815,-3.8149,-3.8147,-3.8141,-3.8153,-3.8157,-3.8145,-3.8134,-3.8136,-3.8139,-3.8134,-3.8136,-3.8155,-3.8145,-3.8075,-3.8065,-3.8054,-3.8048,-3.8156,-3.8156,-3.8219,-3.822,-3.822]}]]